Data start date =,3/22/1930
Data end date/time =,5/6/2024 12:00
Vertical Datum =,MSL1912
""
Date/Time,BRWM5
,Elev
UTC,ft
,Ave
3/23/1930 12:00,625.28
3/24/1930 12:00,625.28
3/25/1930 12:00,625.23
3/26/1930 12:00,625.15
3/27/1930 12:00,625.10
3/28/1930 12:00,625.07
3/29/1930 12:00,624.95
3/30/1930 12:00,624.80
3/31/1930 12:00,624.67
4/1/1930 12:00,624.57
4/2/1930 12:00,624.52
4/3/1930 12:00,624.46
4/4/1930 12:00,624.35
4/5/1930 12:00,624.26
4/6/1930 12:00,624.20
4/7/1930 12:00,624.11
4/8/1930 12:00,624.03
4/9/1930 12:00,623.98
4/10/1930 12:00,623.97
4/11/1930 12:00,623.92
4/12/1930 12:00,623.90
4/13/1930 12:00,623.91
4/14/1930 12:00,623.91
4/15/1930 12:00,623.89
4/16/1930 12:00,623.95
4/17/1930 12:00,623.97
4/18/1930 12:00,624.00
4/19/1930 12:00,624.09
4/20/1930 12:00,624.17
4/21/1930 12:00,624.17
4/22/1930 12:00,624.17
4/23/1930 12:00,624.17
4/24/1930 12:00,624.19
4/25/1930 12:00,624.17
4/26/1930 12:00,624.15
4/27/1930 12:00,624.13
4/28/1930 12:00,624.09
4/29/1930 12:00,624.11
4/30/1930 12:00,624.11
5/1/1930 12:00,624.15
5/2/1930 12:00,624.21
5/3/1930 12:00,624.27
5/4/1930 12:00,624.53
5/5/1930 12:00,624.63
5/6/1930 12:00,624.74
5/7/1930 12:00,624.87
5/8/1930 12:00,624.89
5/9/1930 12:00,624.99
5/10/1930 12:00,625.17
5/11/1930 12:00,625.22
5/12/1930 12:00,625.30
5/13/1930 12:00,625.51
5/14/1930 12:00,625.73
5/15/1930 12:00,625.82
5/16/1930 12:00,625.93
5/17/1930 12:00,626.07
5/18/1930 12:00,626.23
5/19/1930 12:00,626.42
5/20/1930 12:00,626.67
5/21/1930 12:00,626.91
5/22/1930 12:00,627.16
5/23/1930 12:00,627.43
5/24/1930 12:00,627.59
5/25/1930 12:00,627.71
5/26/1930 12:00,627.73
5/27/1930 12:00,627.70
5/28/1930 12:00,627.61
5/29/1930 12:00,627.47
5/30/1930 12:00,627.29
5/31/1930 12:00,627.06
6/1/1930 12:00,626.83
6/2/1930 12:00,626.52
6/3/1930 12:00,626.18
6/4/1930 12:00,626.03
6/5/1930 12:00,626.35
6/6/1930 12:00,626.29
6/7/1930 12:00,626.22
6/8/1930 12:00,626.23
6/9/1930 12:00,626.24
6/10/1930 12:00,626.22
6/11/1930 12:00,626.17
6/12/1930 12:00,626.03
6/13/1930 12:00,626.17
6/14/1930 12:00,626.58
6/15/1930 12:00,627.11
6/16/1930 12:00,627.51
6/17/1930 12:00,628.59
6/18/1930 12:00,629.25
6/19/1930 12:00,629.49
6/20/1930 12:00,629.45
6/21/1930 12:00,629.35
6/22/1930 12:00,628.95
6/23/1930 12:00,628.57
6/24/1930 12:00,628.21
6/25/1930 12:00,627.81
6/26/1930 12:00,627.36
6/27/1930 12:00,626.93
6/28/1930 12:00,626.68
6/29/1930 12:00,626.37
6/30/1930 12:00,626.13
7/1/1930 12:00,625.84
7/2/1930 12:00,625.50
7/3/1930 12:00,625.14
7/4/1930 12:00,625.00
7/5/1930 12:00,624.93
7/6/1930 12:00,624.82
7/7/1930 12:00,624.73
7/8/1930 12:00,624.63
7/9/1930 12:00,624.57
7/10/1930 12:00,624.49
7/11/1930 12:00,624.40
7/12/1930 12:00,624.30
7/13/1930 12:00,624.23
7/14/1930 12:00,624.13
7/15/1930 12:00,624.12
7/16/1930 12:00,624.07
7/17/1930 12:00,624.03
7/18/1930 12:00,624.01
7/19/1930 12:00,623.97
7/20/1930 12:00,623.95
7/21/1930 12:00,623.88
7/22/1930 12:00,623.81
7/23/1930 12:00,623.73
7/24/1930 12:00,623.67
7/25/1930 12:00,623.59
7/26/1930 12:00,623.56
7/27/1930 12:00,623.57
7/28/1930 12:00,623.58
7/29/1930 12:00,623.51
7/30/1930 12:00,623.44
7/31/1930 12:00,623.34
8/1/1930 12:00,623.19
8/2/1930 12:00,623.17
8/3/1930 12:00,623.19
8/4/1930 12:00,623.23
8/5/1930 12:00,623.19
8/6/1930 12:00,623.27
8/7/1930 12:00,623.23
8/8/1930 12:00,623.19
8/9/1930 12:00,623.15
8/10/1930 12:00,623.14
8/11/1930 12:00,623.09
8/12/1930 12:00,623.01
8/13/1930 12:00,622.97
8/14/1930 12:00,622.93
8/15/1930 12:00,622.83
8/16/1930 12:00,622.77
8/17/1930 12:00,622.71
8/18/1930 12:00,622.67
8/19/1930 12:00,622.55
8/20/1930 12:00,622.45
8/21/1930 12:00,622.43
8/22/1930 12:00,622.37
8/23/1930 12:00,622.31
8/24/1930 12:00,622.29
8/25/1930 12:00,622.27
8/26/1930 12:00,622.26
8/27/1930 12:00,622.21
8/28/1930 12:00,622.22
8/29/1930 12:00,622.19
8/30/1930 12:00,622.17
8/31/1930 12:00,622.19
9/1/1930 12:00,622.18
9/2/1930 12:00,622.21
9/3/1930 12:00,622.25
9/4/1930 12:00,622.22
9/5/1930 12:00,622.19
9/6/1930 12:00,622.16
9/7/1930 12:00,622.26
9/8/1930 12:00,622.45
9/9/1930 12:00,622.59
9/10/1930 12:00,622.46
9/11/1930 12:00,622.42
9/12/1930 12:00,622.31
9/13/1930 12:00,622.29
9/14/1930 12:00,622.27
9/15/1930 12:00,622.26
9/16/1930 12:00,622.25
9/17/1930 12:00,622.24
9/18/1930 12:00,622.19
9/19/1930 12:00,622.15
9/20/1930 12:00,622.12
9/21/1930 12:00,622.14
9/22/1930 12:00,622.19
9/23/1930 12:00,622.18
9/24/1930 12:00,622.17
9/25/1930 12:00,622.31
9/26/1930 12:00,622.55
9/27/1930 12:00,622.89
9/28/1930 12:00,623.06
9/29/1930 12:00,623.03
9/30/1930 12:00,622.94
10/1/1930 12:00,622.86
10/2/1930 12:00,622.83
10/3/1930 12:00,622.83
10/4/1930 12:00,622.82
10/5/1930 12:00,622.84
10/6/1930 12:00,622.91
10/7/1930 12:00,623.01
10/8/1930 12:00,623.11
10/9/1930 12:00,623.19
10/10/1930 12:00,623.21
10/11/1930 12:00,623.19
10/12/1930 12:00,623.18
10/13/1930 12:00,623.24
10/14/1930 12:00,623.31
10/15/1930 12:00,623.41
10/16/1930 12:00,623.43
10/17/1930 12:00,623.45
10/18/1930 12:00,623.46
10/19/1930 12:00,623.44
10/20/1930 12:00,623.39
10/21/1930 12:00,623.30
10/22/1930 12:00,623.20
10/23/1930 12:00,623.12
10/24/1930 12:00,623.03
10/25/1930 12:00,622.97
10/26/1930 12:00,622.93
10/27/1930 12:00,622.91
10/28/1930 12:00,622.88
10/29/1930 12:00,622.87
10/30/1930 12:00,622.87
10/31/1930 12:00,622.83
11/1/1930 12:00,622.79
11/2/1930 12:00,622.81
11/3/1930 12:00,622.75
11/4/1930 12:00,622.72
11/5/1930 12:00,622.71
11/6/1930 12:00,622.65
11/7/1930 12:00,622.65
11/8/1930 12:00,622.66
11/9/1930 12:00,622.65
11/10/1930 12:00,622.62
11/11/1930 12:00,622.58
11/12/1930 12:00,622.54
11/13/1930 12:00,622.50
11/14/1930 12:00,622.45
11/15/1930 12:00,622.48
11/16/1930 12:00,622.49
11/17/1930 12:00,622.68
11/18/1930 12:00,622.78
11/19/1930 12:00,622.77
11/20/1930 12:00,622.79
11/21/1930 12:00,622.89
11/22/1930 12:00,622.97
11/23/1930 12:00,623.02
11/24/1930 12:00,623.21
11/25/1930 12:00,623.25
11/26/1930 12:00,623.71
11/27/1930 12:00,623.29
11/28/1930 12:00,623.39
11/29/1930 12:00,624.57
11/30/1930 12:00,624.49
3/21/1931 12:00,622.47
3/22/1931 12:00,622.47
3/23/1931 12:00,622.47
3/24/1931 12:00,622.55
3/25/1931 12:00,622.63
3/26/1931 12:00,622.70
3/27/1931 12:00,622.80
3/28/1931 12:00,622.91
3/29/1931 12:00,623.01
3/30/1931 12:00,622.96
3/31/1931 12:00,623.09
4/1/1931 12:00,623.13
4/2/1931 12:00,623.21
4/3/1931 12:00,623.28
4/4/1931 12:00,623.35
4/5/1931 12:00,623.40
4/6/1931 12:00,623.45
4/7/1931 12:00,623.49
4/8/1931 12:00,623.50
4/9/1931 12:00,623.46
4/10/1931 12:00,623.44
4/11/1931 12:00,623.44
4/12/1931 12:00,623.39
4/13/1931 12:00,623.43
4/14/1931 12:00,623.34
4/15/1931 12:00,623.32
4/16/1931 12:00,623.32
4/17/1931 12:00,623.34
4/18/1931 12:00,623.35
4/19/1931 12:00,623.38
4/20/1931 12:00,623.41
4/21/1931 12:00,623.44
4/22/1931 12:00,623.45
4/23/1931 12:00,623.47
4/24/1931 12:00,623.50
4/25/1931 12:00,623.55
4/26/1931 12:00,623.58
4/27/1931 12:00,623.61
4/28/1931 12:00,623.65
4/29/1931 12:00,623.64
4/30/1931 12:00,623.59
5/1/1931 12:00,623.55
5/2/1931 12:00,623.56
5/3/1931 12:00,623.51
5/4/1931 12:00,623.48
5/5/1931 12:00,623.45
5/6/1931 12:00,623.41
5/7/1931 12:00,623.33
5/8/1931 12:00,623.33
5/9/1931 12:00,623.32
5/10/1931 12:00,623.30
5/11/1931 12:00,623.28
5/12/1931 12:00,623.27
5/13/1931 12:00,623.20
5/14/1931 12:00,623.10
5/15/1931 12:00,623.01
5/16/1931 12:00,622.96
5/17/1931 12:00,622.89
5/18/1931 12:00,622.85
5/19/1931 12:00,622.87
5/20/1931 12:00,622.85
5/21/1931 12:00,622.81
5/22/1931 12:00,622.79
5/23/1931 12:00,622.78
5/24/1931 12:00,622.72
5/25/1931 12:00,622.70
5/26/1931 12:00,622.63
5/27/1931 12:00,622.57
5/28/1931 12:00,622.53
5/29/1931 12:00,622.47
5/30/1931 12:00,622.46
5/31/1931 12:00,622.37
6/1/1931 12:00,622.35
6/2/1931 12:00,622.21
6/3/1931 12:00,622.19
6/4/1931 12:00,622.22
6/5/1931 12:00,622.29
6/6/1931 12:00,622.35
6/7/1931 12:00,622.47
6/8/1931 12:00,622.51
6/9/1931 12:00,622.55
6/10/1931 12:00,622.55
6/11/1931 12:00,622.53
6/12/1931 12:00,622.58
6/13/1931 12:00,622.69
6/14/1931 12:00,622.74
6/15/1931 12:00,622.85
6/16/1931 12:00,623.02
6/17/1931 12:00,623.15
6/18/1931 12:00,623.29
6/19/1931 12:00,623.51
6/20/1931 12:00,623.83
6/21/1931 12:00,624.11
6/22/1931 12:00,624.29
6/23/1931 12:00,624.75
6/24/1931 12:00,624.98
6/25/1931 12:00,625.22
6/26/1931 12:00,625.44
6/27/1931 12:00,625.65
6/28/1931 12:00,625.81
6/29/1931 12:00,625.91
6/30/1931 12:00,625.99
7/1/1931 12:00,626.04
7/2/1931 12:00,626.13
7/3/1931 12:00,626.18
7/4/1931 12:00,626.23
7/5/1931 12:00,626.19
7/6/1931 12:00,626.04
7/7/1931 12:00,625.93
7/8/1931 12:00,625.51
7/9/1931 12:00,625.19
7/10/1931 12:00,624.89
7/11/1931 12:00,624.69
7/12/1931 12:00,624.52
7/13/1931 12:00,624.35
7/14/1931 12:00,624.21
7/15/1931 12:00,624.09
7/16/1931 12:00,624.09
7/17/1931 12:00,623.87
7/18/1931 12:00,623.72
7/19/1931 12:00,623.58
7/20/1931 12:00,623.57
7/21/1931 12:00,623.41
7/22/1931 12:00,623.23
7/23/1931 12:00,623.05
7/24/1931 12:00,622.87
7/25/1931 12:00,622.69
7/26/1931 12:00,622.54
7/27/1931 12:00,622.37
7/28/1931 12:00,622.17
7/29/1931 12:00,622.02
7/30/1931 12:00,621.81
7/31/1931 12:00,621.60
8/1/1931 12:00,621.46
8/2/1931 12:00,621.54
8/3/1931 12:00,621.91
8/4/1931 12:00,621.63
8/5/1931 12:00,621.47
8/6/1931 12:00,621.33
8/7/1931 12:00,621.25
8/8/1931 12:00,621.29
8/9/1931 12:00,621.41
8/10/1931 12:00,621.51
8/11/1931 12:00,621.46
8/12/1931 12:00,621.43
8/13/1931 12:00,621.33
8/14/1931 12:00,621.25
8/15/1931 12:00,621.22
8/16/1931 12:00,621.20
8/17/1931 12:00,621.20
8/18/1931 12:00,621.27
8/19/1931 12:00,621.27
8/20/1931 12:00,621.28
8/21/1931 12:00,621.27
8/22/1931 12:00,621.24
8/23/1931 12:00,621.18
8/24/1931 12:00,621.14
8/25/1931 12:00,621.07
8/26/1931 12:00,621.01
8/27/1931 12:00,620.93
8/28/1931 12:00,620.91
8/29/1931 12:00,620.81
8/30/1931 12:00,620.85
8/31/1931 12:00,620.79
9/1/1931 12:00,620.81
9/2/1931 12:00,621.46
9/3/1931 12:00,622.07
9/4/1931 12:00,622.13
9/5/1931 12:00,621.87
9/6/1931 12:00,621.57
9/7/1931 12:00,621.29
9/8/1931 12:00,621.14
9/9/1931 12:00,620.97
9/10/1931 12:00,620.88
9/11/1931 12:00,620.84
9/12/1931 12:00,620.77
9/13/1931 12:00,620.71
9/14/1931 12:00,620.66
9/15/1931 12:00,620.65
9/16/1931 12:00,620.83
9/17/1931 12:00,620.93
9/18/1931 12:00,620.90
9/19/1931 12:00,620.84
9/20/1931 12:00,620.89
9/21/1931 12:00,620.90
9/22/1931 12:00,621.05
9/23/1931 12:00,621.12
9/24/1931 12:00,621.24
9/25/1931 12:00,621.45
9/26/1931 12:00,621.74
9/27/1931 12:00,621.89
9/28/1931 12:00,621.85
9/29/1931 12:00,621.80
9/30/1931 12:00,621.77
10/1/1931 12:00,621.80
10/2/1931 12:00,621.83
10/3/1931 12:00,621.86
10/4/1931 12:00,621.85
10/5/1931 12:00,621.81
10/6/1931 12:00,621.80
10/7/1931 12:00,622.88
10/8/1931 12:00,623.73
10/9/1931 12:00,623.37
10/10/1931 12:00,623.00
10/11/1931 12:00,622.77
10/12/1931 12:00,622.56
10/13/1931 12:00,622.50
10/14/1931 12:00,622.38
10/15/1931 12:00,622.36
10/16/1931 12:00,622.41
10/17/1931 12:00,622.43
10/18/1931 12:00,622.47
10/19/1931 12:00,622.44
10/20/1931 12:00,622.40
10/21/1931 12:00,622.29
10/22/1931 12:00,622.17
10/23/1931 12:00,622.09
10/24/1931 12:00,622.06
10/25/1931 12:00,621.98
10/26/1931 12:00,621.94
10/27/1931 12:00,621.91
10/28/1931 12:00,621.87
10/29/1931 12:00,621.84
10/30/1931 12:00,621.88
10/31/1931 12:00,621.85
11/1/1931 12:00,621.84
11/2/1931 12:00,621.83
11/3/1931 12:00,621.89
11/4/1931 12:00,621.83
11/5/1931 12:00,621.86
11/6/1931 12:00,621.86
11/7/1931 12:00,621.92
11/8/1931 12:00,621.93
11/9/1931 12:00,621.93
11/10/1931 12:00,622.15
11/11/1931 12:00,622.17
11/12/1931 12:00,622.26
11/13/1931 12:00,622.29
11/14/1931 12:00,622.32
11/15/1931 12:00,622.43
11/16/1931 12:00,622.79
11/17/1931 12:00,623.15
11/18/1931 12:00,623.69
11/19/1931 12:00,623.99
11/20/1931 12:00,624.12
11/21/1931 12:00,624.35
11/22/1931 12:00,624.55
11/23/1931 12:00,624.71
11/24/1931 12:00,625.01
11/25/1931 12:00,625.64
11/26/1931 12:00,625.57
11/27/1931 12:00,625.63
11/28/1931 12:00,625.79
11/29/1931 12:00,625.91
11/30/1931 12:00,625.83
12/1/1931 12:00,625.63
12/2/1931 12:00,625.42
12/3/1931 12:00,625.22
12/4/1931 12:00,624.91
12/5/1931 12:00,624.63
12/6/1931 12:00,624.53
12/7/1931 12:00,624.38
12/8/1931 12:00,624.26
12/9/1931 12:00,624.15
12/10/1931 12:00,624.07
12/11/1931 12:00,624.02
12/12/1931 12:00,624.15
12/13/1931 12:00,624.13
12/14/1931 12:00,624.09
12/15/1931 12:00,623.85
12/16/1931 12:00,623.58
12/17/1931 12:00,623.53
12/18/1931 12:00,623.53
12/19/1931 12:00,623.61
12/20/1931 12:00,623.60
12/21/1931 12:00,623.59
12/22/1931 12:00,623.57
12/23/1931 12:00,623.55
12/24/1931 12:00,623.55
12/25/1931 12:00,623.55
12/26/1931 12:00,623.55
12/27/1931 12:00,623.59
12/28/1931 12:00,623.57
12/29/1931 12:00,623.55
12/30/1931 12:00,623.52
12/31/1931 12:00,623.49
1/1/1932 12:00,623.49
1/2/1932 12:00,623.50
1/3/1932 12:00,623.47
1/4/1932 12:00,623.41
1/5/1932 12:00,623.29
1/6/1932 12:00,623.27
1/7/1932 12:00,623.26
1/8/1932 12:00,623.21
1/9/1932 12:00,624.21
1/10/1932 12:00,624.19
1/11/1932 12:00,624.21
1/12/1932 12:00,624.39
1/13/1932 12:00,625.29
1/14/1932 12:00,626.46
1/15/1932 12:00,626.17
1/16/1932 12:00,625.89
1/17/1932 12:00,625.75
1/18/1932 12:00,625.89
1/19/1932 12:00,625.99
1/20/1932 12:00,626.08
1/21/1932 12:00,625.99
1/22/1932 12:00,626.07
1/23/1932 12:00,626.17
1/24/1932 12:00,626.17
1/25/1932 12:00,626.21
1/26/1932 12:00,626.09
1/27/1932 12:00,625.94
1/28/1932 12:00,625.77
1/29/1932 12:00,625.74
1/30/1932 12:00,625.71
1/31/1932 12:00,625.69
2/1/1932 12:00,625.63
2/2/1932 12:00,625.27
2/3/1932 12:00,625.05
2/4/1932 12:00,624.59
2/5/1932 12:00,624.59
2/6/1932 12:00,624.99
2/7/1932 12:00,625.16
2/8/1932 12:00,625.29
2/9/1932 12:00,625.33
2/10/1932 12:00,625.39
2/11/1932 12:00,625.41
2/12/1932 12:00,625.49
2/13/1932 12:00,625.55
2/14/1932 12:00,625.50
2/15/1932 12:00,625.40
2/16/1932 12:00,625.37
2/17/1932 12:00,625.41
2/18/1932 12:00,625.41
2/19/1932 12:00,625.39
2/20/1932 12:00,625.37
2/21/1932 12:00,625.37
2/22/1932 12:00,625.37
2/23/1932 12:00,625.35
2/24/1932 12:00,625.34
2/25/1932 12:00,625.29
2/26/1932 12:00,625.31
2/27/1932 12:00,625.41
2/28/1932 12:00,625.67
2/29/1932 12:00,626.02
3/1/1932 12:00,626.69
3/2/1932 12:00,627.04
3/3/1932 12:00,627.07
3/4/1932 12:00,627.20
3/5/1932 12:00,627.49
3/6/1932 12:00,627.55
3/7/1932 12:00,627.32
3/8/1932 12:00,627.12
3/9/1932 12:00,627.13
3/10/1932 12:00,627.19
3/11/1932 12:00,627.19
3/12/1932 12:00,627.18
3/13/1932 12:00,627.20
3/14/1932 12:00,627.29
3/15/1932 12:00,627.37
3/16/1932 12:00,627.42
3/17/1932 12:00,627.43
3/18/1932 12:00,627.33
3/19/1932 12:00,627.26
3/20/1932 12:00,627.13
3/21/1932 12:00,626.99
3/22/1932 12:00,626.89
3/23/1932 12:00,626.75
3/24/1932 12:00,626.60
3/25/1932 12:00,626.49
3/26/1932 12:00,626.38
3/27/1932 12:00,627.18
3/28/1932 12:00,627.03
3/29/1932 12:00,626.67
3/30/1932 12:00,627.09
3/31/1932 12:00,627.15
4/1/1932 12:00,627.19
4/2/1932 12:00,627.39
4/3/1932 12:00,627.64
4/4/1932 12:00,627.69
4/5/1932 12:00,627.77
4/6/1932 12:00,627.76
4/7/1932 12:00,627.96
4/8/1932 12:00,628.17
4/9/1932 12:00,628.31
4/10/1932 12:00,628.80
4/11/1932 12:00,629.30
4/12/1932 12:00,629.63
4/13/1932 12:00,629.85
4/14/1932 12:00,630.09
4/15/1932 12:00,630.32
4/16/1932 12:00,630.48
4/17/1932 12:00,630.47
4/18/1932 12:00,630.33
4/19/1932 12:00,630.13
4/20/1932 12:00,629.84
4/21/1932 12:00,629.53
4/22/1932 12:00,629.14
4/23/1932 12:00,628.71
4/24/1932 12:00,628.29
4/25/1932 12:00,627.81
4/26/1932 12:00,627.41
4/27/1932 12:00,627.03
4/28/1932 12:00,626.69
4/29/1932 12:00,626.43
4/30/1932 12:00,626.22
5/1/1932 12:00,625.96
5/2/1932 12:00,625.78
5/3/1932 12:00,625.69
5/4/1932 12:00,625.53
5/5/1932 12:00,625.37
5/6/1932 12:00,625.83
5/7/1932 12:00,626.15
5/8/1932 12:00,626.14
5/9/1932 12:00,626.37
5/10/1932 12:00,627.20
5/11/1932 12:00,627.58
5/12/1932 12:00,627.63
5/13/1932 12:00,627.40
5/14/1932 12:00,627.13
5/15/1932 12:00,626.92
5/16/1932 12:00,626.87
5/17/1932 12:00,626.87
5/18/1932 12:00,626.87
5/19/1932 12:00,626.83
5/20/1932 12:00,626.70
5/21/1932 12:00,626.59
5/22/1932 12:00,626.43
5/23/1932 12:00,626.30
5/24/1932 12:00,626.15
5/25/1932 12:00,625.99
5/26/1932 12:00,625.90
5/27/1932 12:00,625.76
5/28/1932 12:00,625.59
5/29/1932 12:00,625.38
5/30/1932 12:00,625.15
5/31/1932 12:00,624.95
6/1/1932 12:00,624.75
6/2/1932 12:00,624.58
6/3/1932 12:00,624.46
6/4/1932 12:00,624.39
6/5/1932 12:00,624.38
6/6/1932 12:00,624.38
6/7/1932 12:00,624.41
6/8/1932 12:00,624.48
6/9/1932 12:00,624.67
6/10/1932 12:00,624.49
6/11/1932 12:00,624.34
6/12/1932 12:00,624.23
6/13/1932 12:00,624.16
6/14/1932 12:00,624.12
6/15/1932 12:00,624.03
6/16/1932 12:00,623.96
6/17/1932 12:00,623.90
6/18/1932 12:00,624.43
6/19/1932 12:00,624.66
6/20/1932 12:00,624.40
6/21/1932 12:00,624.23
6/22/1932 12:00,624.04
6/23/1932 12:00,623.92
6/24/1932 12:00,623.81
6/25/1932 12:00,623.74
6/26/1932 12:00,623.89
6/27/1932 12:00,624.05
6/28/1932 12:00,624.10
6/29/1932 12:00,624.05
6/30/1932 12:00,623.86
7/1/1932 12:00,623.75
7/2/1932 12:00,623.63
7/3/1932 12:00,623.59
7/4/1932 12:00,623.56
7/5/1932 12:00,623.47
7/6/1932 12:00,623.41
7/7/1932 12:00,623.30
7/8/1932 12:00,623.23
7/9/1932 12:00,623.15
7/10/1932 12:00,623.33
7/11/1932 12:00,623.46
7/12/1932 12:00,623.81
7/13/1932 12:00,623.96
7/14/1932 12:00,623.84
7/15/1932 12:00,623.59
7/16/1932 12:00,623.26
7/17/1932 12:00,623.08
7/18/1932 12:00,622.92
7/19/1932 12:00,622.79
7/20/1932 12:00,622.68
7/21/1932 12:00,622.58
7/22/1932 12:00,622.46
7/23/1932 12:00,622.34
7/24/1932 12:00,622.23
7/25/1932 12:00,622.10
7/26/1932 12:00,622.06
7/27/1932 12:00,622.00
7/28/1932 12:00,621.99
7/29/1932 12:00,621.88
7/30/1932 12:00,621.81
7/31/1932 12:00,621.78
8/1/1932 12:00,621.72
8/2/1932 12:00,621.85
8/3/1932 12:00,622.05
8/4/1932 12:00,621.91
8/5/1932 12:00,621.83
8/6/1932 12:00,621.74
8/7/1932 12:00,621.70
8/8/1932 12:00,621.65
8/9/1932 12:00,621.61
8/10/1932 12:00,621.59
8/11/1932 12:00,621.51
8/12/1932 12:00,621.46
8/13/1932 12:00,621.42
8/14/1932 12:00,621.36
8/15/1932 12:00,621.32
8/16/1932 12:00,621.26
8/17/1932 12:00,623.06
8/18/1932 12:00,623.15
8/19/1932 12:00,622.53
8/20/1932 12:00,622.02
8/21/1932 12:00,621.63
8/22/1932 12:00,621.48
8/23/1932 12:00,621.38
8/24/1932 12:00,621.31
8/25/1932 12:00,621.31
8/26/1932 12:00,621.83
8/27/1932 12:00,621.89
8/28/1932 12:00,621.89
8/29/1932 12:00,621.88
8/30/1932 12:00,621.73
8/31/1932 12:00,621.68
9/1/1932 12:00,621.60
9/2/1932 12:00,621.53
9/3/1932 12:00,621.49
9/4/1932 12:00,621.49
9/5/1932 12:00,621.49
9/6/1932 12:00,621.45
9/7/1932 12:00,621.43
9/8/1932 12:00,621.30
9/9/1932 12:00,621.24
9/10/1932 12:00,621.17
9/11/1932 12:00,621.12
9/12/1932 12:00,621.09
9/13/1932 12:00,621.18
9/14/1932 12:00,621.19
9/15/1932 12:00,621.22
9/16/1932 12:00,621.14
9/17/1932 12:00,621.09
9/18/1932 12:00,621.05
9/19/1932 12:00,620.97
9/20/1932 12:00,621.14
9/21/1932 12:00,621.43
9/22/1932 12:00,621.26
9/23/1932 12:00,621.07
9/24/1932 12:00,621.01
9/25/1932 12:00,620.98
9/26/1932 12:00,620.95
9/27/1932 12:00,620.95
9/28/1932 12:00,620.87
9/29/1932 12:00,620.86
9/30/1932 12:00,620.82
10/1/1932 12:00,620.78
10/2/1932 12:00,620.75
10/3/1932 12:00,620.71
10/4/1932 12:00,620.70
10/5/1932 12:00,620.69
10/6/1932 12:00,620.68
10/7/1932 12:00,620.69
10/8/1932 12:00,620.69
10/9/1932 12:00,620.70
10/10/1932 12:00,620.75
10/11/1932 12:00,620.73
10/12/1932 12:00,620.72
10/13/1932 12:00,620.71
10/14/1932 12:00,620.73
10/15/1932 12:00,620.70
10/16/1932 12:00,620.71
10/17/1932 12:00,620.72
10/18/1932 12:00,620.75
10/19/1932 12:00,620.75
10/20/1932 12:00,620.73
10/21/1932 12:00,620.65
10/22/1932 12:00,620.74
10/23/1932 12:00,620.92
10/24/1932 12:00,620.92
10/25/1932 12:00,620.95
10/26/1932 12:00,620.98
10/27/1932 12:00,620.99
10/28/1932 12:00,620.99
10/29/1932 12:00,621.06
10/30/1932 12:00,620.96
10/31/1932 12:00,621.03
11/1/1932 12:00,620.98
11/2/1932 12:00,620.95
11/3/1932 12:00,620.92
11/4/1932 12:00,620.93
11/5/1932 12:00,620.97
11/6/1932 12:00,621.09
11/7/1932 12:00,621.17
11/8/1932 12:00,621.32
11/9/1932 12:00,621.55
11/10/1932 12:00,621.71
11/11/1932 12:00,621.85
11/12/1932 12:00,621.88
11/13/1932 12:00,621.92
11/14/1932 12:00,622.02
11/15/1932 12:00,622.02
11/16/1932 12:00,621.99
11/17/1932 12:00,621.97
11/18/1932 12:00,621.97
11/19/1932 12:00,622.07
11/20/1932 12:00,621.98
11/21/1932 12:00,622.03
11/22/1932 12:00,622.13
11/23/1932 12:00,623.19
11/24/1932 12:00,623.67
11/25/1932 12:00,624.53
11/26/1932 12:00,624.43
11/27/1932 12:00,623.82
11/28/1932 12:00,623.63
11/29/1932 12:00,623.67
11/30/1932 12:00,623.99
12/1/1932 12:00,624.09
12/2/1932 12:00,624.09
12/3/1932 12:00,624.25
12/4/1932 12:00,624.22
12/5/1932 12:00,623.45
12/6/1932 12:00,622.89
12/7/1932 12:00,622.31
4/13/1933 12:00,628.53
4/14/1933 12:00,628.55
4/15/1933 12:00,628.50
4/16/1933 12:00,628.30
4/17/1933 12:00,628.01
4/18/1933 12:00,627.62
4/19/1933 12:00,627.23
4/20/1933 12:00,626.84
4/21/1933 12:00,626.47
4/22/1933 12:00,626.20
4/23/1933 12:00,626.05
4/24/1933 12:00,625.96
4/25/1933 12:00,625.86
4/26/1933 12:00,625.75
4/27/1933 12:00,625.64
4/28/1933 12:00,625.53
4/29/1933 12:00,625.34
4/30/1933 12:00,625.22
5/1/1933 12:00,625.22
5/2/1933 12:00,625.17
5/3/1933 12:00,625.19
5/4/1933 12:00,625.19
5/5/1933 12:00,625.31
5/6/1933 12:00,625.55
5/7/1933 12:00,625.74
5/8/1933 12:00,625.89
5/9/1933 12:00,625.87
5/10/1933 12:00,625.82
5/11/1933 12:00,625.80
5/12/1933 12:00,625.93
5/13/1933 12:00,626.12
5/14/1933 12:00,626.22
5/15/1933 12:00,626.19
5/16/1933 12:00,626.16
5/17/1933 12:00,626.13
5/18/1933 12:00,626.01
5/19/1933 12:00,625.88
5/20/1933 12:00,626.15
5/21/1933 12:00,626.02
5/22/1933 12:00,625.96
5/23/1933 12:00,625.86
5/24/1933 12:00,625.85
5/25/1933 12:00,625.61
5/26/1933 12:00,625.45
5/27/1933 12:00,625.29
5/28/1933 12:00,625.14
5/29/1933 12:00,625.15
5/30/1933 12:00,625.31
5/31/1933 12:00,625.33
6/1/1933 12:00,625.35
6/2/1933 12:00,625.38
6/3/1933 12:00,625.47
6/4/1933 12:00,625.47
6/5/1933 12:00,625.54
6/6/1933 12:00,625.59
6/7/1933 12:00,625.59
6/8/1933 12:00,625.56
6/9/1933 12:00,625.59
6/10/1933 12:00,625.65
6/11/1933 12:00,625.66
6/12/1933 12:00,625.58
6/13/1933 12:00,625.45
6/14/1933 12:00,625.32
6/15/1933 12:00,625.15
6/16/1933 12:00,624.92
6/17/1933 12:00,624.70
6/18/1933 12:00,624.53
6/19/1933 12:00,624.39
6/20/1933 12:00,624.27
6/21/1933 12:00,624.17
6/22/1933 12:00,624.05
6/23/1933 12:00,623.93
6/24/1933 12:00,623.82
6/25/1933 12:00,623.73
6/26/1933 12:00,623.65
6/27/1933 12:00,623.55
6/28/1933 12:00,623.45
6/29/1933 12:00,623.29
6/30/1933 12:00,623.15
7/1/1933 12:00,623.15
7/2/1933 12:00,623.67
7/3/1933 12:00,623.50
7/4/1933 12:00,623.14
7/5/1933 12:00,622.83
7/6/1933 12:00,622.57
7/7/1933 12:00,622.40
7/8/1933 12:00,622.30
7/9/1933 12:00,622.19
7/10/1933 12:00,622.07
7/11/1933 12:00,621.97
7/12/1933 12:00,621.91
7/13/1933 12:00,621.89
7/14/1933 12:00,621.99
7/15/1933 12:00,622.08
7/16/1933 12:00,622.06
7/17/1933 12:00,621.90
7/18/1933 12:00,621.83
7/19/1933 12:00,621.74
7/20/1933 12:00,621.65
7/21/1933 12:00,621.58
7/22/1933 12:00,623.21
7/23/1933 12:00,623.55
7/24/1933 12:00,622.73
7/25/1933 12:00,622.34
7/26/1933 12:00,622.12
7/27/1933 12:00,621.95
7/28/1933 12:00,621.82
7/29/1933 12:00,621.69
7/30/1933 12:00,621.58
7/31/1933 12:00,621.49
8/1/1933 12:00,621.51
8/2/1933 12:00,621.47
8/3/1933 12:00,621.49
8/4/1933 12:00,621.41
8/5/1933 12:00,621.37
8/6/1933 12:00,621.28